Regional Weather Roundup
Issued by NWS Charleston, SC

Current Version | Previous Version | Graphics & Text | Print | Product List | Glossary On
Versions: 1 2 3 4 5 6 7 8 9 10 11 12 13 14 15 16 17 18 19 20 21 22 23 24 25 26 27 28 29 30 31 32 33 34 35 36 37 38 39 40 41 42 43 44 45 46 47 48 49 50
000
ASUS42 KCHS 010112
RWRCHS

REGIONAL WEATHER ROUNDUP
NATIONAL WEATHER SERVICE CHARLESTON SC
900 PM EDT MON AUG 31 2015

NOTE: "FAIR" INDICATES FEW OR NO CLOUDS BELOW 12,000 FEET WITH NO
SIGNIFICANT WEATHER AND/OR OBSTRUCTIONS TO VISIBILITY.

NOT ALL STATIONS ARE QUALITY CONTROLLED BY THE NATIONAL
WEATHER SERVICE. USE DATA WITH CAUTION...ESPECIALLY
DEWPOINT OBSERVATIONS.

SCZ027-030-031-034>040-042>050-010200-
...SOUTHEAST SOUTH CAROLINA...

CITY           SKY/WX    TMP DP  RH WIND       PRES   REMARKS
N CHARLESTON   FAIR      80  74  81 CALM      30.06R
WATERFRONT PRK   N/A     83  77  81 NE6       30.02R HX  92
MOUNT PLEASANT LGT RAIN  79  75  89 CALM      30.05S
JOHNS ISLAND   MOCLDY    79  77  94 CALM      30.06R
PINOPOLIS        N/A     84  73  70 VRB2      29.98R HX  91
MONCKS CORNER  FAIR      77  73  88 CALM      30.06R
SUMMERVILLE    FAIR      77  75  94 CALM      30.07R
BEAUFORT MCAS  FAIR      77  74  90 CALM      30.06R
BEAUFORT ARPT  FAIR      77  73  88 CALM      30.06R
HILTON HEAD IS CLOUDY    81  75  83 W3        30.07R
WALTERBORO     FAIR      77  72  83 CALM      30.07R
ALLENDALE      FAIR      75  72  88 CALM      30.06R

...SOUTHERN MIDLANDS AND PEE DEE...

CITY           SKY/WX    TMP DP  RH WIND       PRES   REMARKS
GEORGETOWN     NOT AVBL
KINGSTREE      NOT AVBL
ORANGEBURG     FAIR      77  72  84 SW5       30.06R
BARNWELL       FAIR      75  73  94 CALM      30.07R
AIKEN          FAIR      73  68  83 CALM      30.11R
MANNING        FAIR      73  72  94 CALM      30.06R
COLUMBIA       FAIR      79  70  74 W3        30.05R
SUMTER         FAIR      76  71  83 NE3       30.04R
FLORENCE       FAIR      75  70  84 CALM      30.06R
MYRTLE BEACH   PTCLDY    79  73  83 CALM      30.07
N MYRTLE BEACH MOCLDY    77  75  93 NW3       30.05R

$$

GAZ063-065-086>088-099>101-113>116-118-119-134>141-150-010200-
...SOUTHEAST GEORGIA...

CITY           SKY/WX    TMP DP  RH WIND       PRES   REMARKS
SAVANNAH ARPT  PTCLDY    78  73  84 CALM      30.07R
HUNTER AAF     PTCLDY    79  77  92 E2        30.04R
FORT STEWART   CLEAR     77  73  88 CALM      30.04R
STATESBORO     CLEAR     73  32  22 CALM      30.07R
SYLVANIA       CLEAR     75  74  99 CALM      30.08R
CLAXTON        NOT AVBL

...CSRA...CENTRAL AND FAR SOUTHEAST GEORGIA...

CITY           SKY/WX    TMP DP  RH WIND       PRES   REMARKS
THOMSON        CLEAR     74  74 100 CALM      30.12S
AUGUSTA-BUSH   CLEAR     73  71  93 CALM      30.06R
AUGUSTA-DANIEL CLEAR     83  68  60 CALM      30.08R
SWAINSBORO     FAIR     N/A N/A N/A CALM      30.08R
VIDALIA        CLEAR     73  72  94 CALM      30.08R
EASTMAN        FAIR      78  73  84 E3        30.10R
HAZLEHURST     FAIR      79  73  79 CALM      30.06R
ALMA           CLEAR     77  72  84 E3        30.06R
WAYCROSS       CLEAR     82  77  86 CALM      30.06R HX  90
JESUP          FAIR      81  77  89 CALM      30.07R
BAXLEY         FAIR      79  73  83 CALM      30.07R
BRUNSWICK      MOCLDY    79  75  89 CALM      30.07R
SAINT SIMONS   MOCLDY    81  76  84 SE5       30.06R

$$

SCZ027-028-034-036>038-045-046-048>050-GAZ119-141-010200-
...LAKE AND SUPPLEMENTAL COASTAL OBSERVATIONS...

STATION/POSITION TIME  TEMP    WIND        PRES    WAVE   SWELL
                       AIR SEA DIR/SP/G            HT/PER HT/PER/DIR
                 (UTC) (F)     (DEG/KT/KT) (MB)    (FT/S) (FT/S/D)
UPR LAKE MARION  NOT AVBL
WINYAH BAY       2345   80     320/  1     1016.0
LAKE MURRAY      0000   82     230/  3/  4 1016.9R
ACE BASIN NERRS  NOT AVBL
FORT PULASKI     0000   80 83  140/  3/  3 1018.0R
SAPELO ISLAND    0000   81     110/  1     1017.0S

$$

ANZ835-935-AMZ111-154-330-350-352-354-370-450-454-472-010200-
...C-MAN AND BUOY OBSERVATIONS...

STATION/POSITION TIME  TEMP    WIND        PRES    WAVE   SWELL
                       AIR SEA DIR/SP/G            HT/PER HT/PER/DIR
                 (UTC) (F)     (DEG/KT/KT) (MB)    (FT/S) (FT/S/D)
BUOY 41004       0050   81 83  240/  8/ 10 1017.1R   4/ 8   3/ 8
BUOY 41008       0050   81 85  130/  4/  6 1017.8R   3/ 9   3/100/ 9
FOLLY BEACH CMAN 0000   81     230/  5/  6 1017.4R
CAPERS NEARSHORE 0008   82     240/  8/ 10 1017.5R
FRIPP NEARSHORE  0000   82     220/ 10/ 10 1017.0S


STATION/POSITION TIME  TEMP    WIND        PRES    WAVE   SWELL
                       AIR SEA DIR/SP/G            HT/PER HT/PER/DIR
                 (UTC) (F)     (DEG/KT/KT) (MB)    (FT/S) (FT/S/D)
5E ST. MARYS GA  0021      86                N/A     3/ 8
FRYING PAN BUOY  0050   82 81  220/ 16/ 17 1017.2R   5/ 5   2/120/ 9
BUOY 41025       0050   81 84  160/ 17/ 19 1018.1R   4/ 8   2/150/ 8
CAPE LOOKOUT NC  0000   78     150/ 15/ 17 1017.3S
BUOY 41002       0050   84 84  200/ 14/ 17 1018.5F   4/ 7   2/110/10
BUOY 41010       0020   85 86  160/  6/  6 1018.1S
ST AUGUSTINE FL  0100   83 85  150/ 12/ 13 1018.5R


$$


USA.gov is the U.S. government's official web portal to all federal, state and local government web resources and services.